Location: Prague
(50.0830°N, 14.4670°E)
Time: 11:52:59
(UTC+01:00)

Oscar 11 - Pass Details

Date: 29 November 2021
Orbit: 611 x 625 km, 97.6° (Epoch: 23 January)

Event Time Altitude Azimuth Distance (km) Brightness Sun altitude
Rises 06:06:16 0° 9° (N) 2,923 10.4 -13.9°
Reaches altitude 10° 06:08:31 10° 4° (N) 2,010 9.5 -13.5°
Maximum altitude 06:12:45 50° 290° (WNW) 803 7.2 -12.9°
Drops below altitude 10° 06:16:56 10° 215° (SW) 1,989 9.5 -12.3°
Sets 06:19:09 0° 210° (SSW) 2,889 10.4 -11.9°
